Tracking 19484 objects as of 19-Jan-2019
HD Live streaming from Space Station
objects crossing your sky now

COSMOS 1522

Track COSMOS 1522 now!
10-day predictions
COSMOS 1522 is classified as:


NORAD ID: 14611
Int'l Code: 1984-001A
Perigee: 1,467.7 km
Apogee: 1,500.5 km
Inclination: 74.0 °
Period: 115.5 minutes
Semi major axis: 7855 km
RCS: 0.7164 m2 (medium)
Launch date: January 5, 1984
Source: Commonwealth of Independent States (former USSR) (CIS)
Launch site: PLESETSK MISSILE AND SPACE COMPLEX (PKMTR)
aabbcc
Your satellite tracking list
Your tracking list is empty




NASA's NSSDC Master Catalog

Two Line Element Set (TLE):
1 14611U 84001A   19018.24283671 -.00000004  00000-0  79447-4 0  9998
2 14611  74.0078  44.7004 0020884 261.3640 169.0781 12.47023411595101
Source of the keplerian elements: AFSPC